Temperature
17 16 16 16 16 16 16 16 15 15 15 15 15 15 15 15 15 15 15 15 14 14 14 14 14 14 14 14 14 14 14 13 13 13 12 12 12 12 12 12 12 12 12
17 17 16 16 16 16 16 16 15 15 15 15 15 15 15 15 15 15 15 14 14 14 14 14 14 14 14 14 14 14 13 13 13 13 12 12 12 12 12 12 12 12 11
17 16 16 16 16 16 16 16 15 15 15 15 15 15 15 15 15 15 14 14 14 14 14 14 14 14 14 14 13 13 13 13 13 13 12 12 12 12 12 12 11 11 11
17 16 16 16 16 16 16 15 15 15 15 15 15 15 15 15 15 15 14 14 14 14 14 14 14 14 14 13 13 13 13 13 13 12 12 12 12 11 11 11 11 11 11
17 17 16 16 16 16 15 15 15 15 15 15 15 15 14 14 14 14 14 14 14 14 14 14 13 13 13 13 13 13 13 12 12 12 12 12 11 11 11 11 11 10 10
17 17 16 16 16 16 15 15 15 15 15 15 15 14 14 14 14 14 14 14 14 14 14 13 13 13 13 13 13 13 12 12 12 12 12 12 11 11 11 11 10 10 10
16 16 16 16 16 15 15 15 15 15 15 15 14 14 14 14 14 14 14 14 14 14 13 13 13 13 13 13 13 13 12 12 12 12 12 11 11 11 11 10 10 10 10
16 16 16 16 16 15 15 15 15 15 15 14 14 14 14 14 14 14 14 14 14 13 13 13 13 13 13 13 12 12 12 12 12 11 11 11 11 11 10 10 10 10 10
16 16 16 16 15 15 15 15 15 14 14 14 14 14 14 14 14 14 13 13 13 13 13 13 12 12 12 12 12 12 12 12 11 11 11 11 11 10 10 10 10 9 9
16 16 15 15 15 15 15 15 14 14 14 14 14 14 14 14 13 13 13 13 13 13 13 12 12 12 12 12 12 12 12 11 11 11 11 11 10 10 10 9 9 9 9
15 15 15 15 15 15 15 14 14 14 14 14 14 13 13 13 13 13 13 13 13 13 12 12 12 12 12 11 11 11 11 11 11 11 10 10 10 10 10 9 9 8 8
15 15 15 15 15 14 14 14 14 14 13 13 13 13 13 13 13 12 12 12 12 12 12 12 12 11 11 11 11 11 10 10 10 10 10 10 10 9 9 9 8 8 8
14 14 14 14 14 14 14 14 13 13 13 13 13 13 13 12 12 12 12 12 12 12 11 11 11 11 11 11 10 10 10 10 10 10 9 9 9 9 8 8 8 8 8
14 14 14 14 14 14 13 13 13 13 13 13 13 13 12 12 12 12 12 12 11 11 11 11 11 11 10 10 10 10 10 9 9 9 9 8 8 8 8 8 7 7 7
14 14 14 13 13 13 13 13 13 13 13 13 12 12 12 12 12 11 11 11 11 11 11 11 11 10 10 10 10 10 9 9 9 8 8 8 8 7 7 7 7 6 6
13 13 13 13 13 13 13 12 12 12 12 12 12 12 12 11 11 11 11 11 11 10 10 10 10 10 10 9 9 9 9 9 8 8 8 7 7 7 7 6 6 6 6
13 13 13 13 13 12 12 12 12 12 12 12 12 11 11 11 11 11 10 10 10 10 10 10 10 9 9 9 9 9 8 8 8 7 7 7 7 6 6 6 6 5 5
12 12 12 12 12 12 12 12 12 12 11 11 11 11 11 11 10 10 10 10 10 9 9 9 9 9 9 8 8 8 8 8 7 7 7 7 6 6 6 5 5 5 5
12 12 12 12 12 11 11 11 11 11 11 11 11 11 10 10 10 10 9 9 9 9 9 9 9 8 8 8 8 8 7 7 7 7 6 6 6 6 5 5 5 5 5
11 11 11 11 11 11 11 11 11 11 10 10 10 10 10 10 10 9 9 9 9 9 8 8 8 8 8 8 7 7 7 7 7 6 6 6 5 5 5 5 4 4 4
11 11 11 11 11 11 10 10 10 10 10 10 10 10 10 9 9 9 9 9 8 8 8 8 8 7 7 7 7 7 6 6 6 6 6 5 5 5 5 4 4 4 4
10 10 10 10 10 10 10 10 10 10 10 10 9 9 9 9 9 8 8 8 8 8 8 8 7 7 7 7 7 6 6 6 6 6 5 5 5 4 4 4 4 3 3
10 10 10 10 10 9 9 9 9 9 9 9 9 9 8 8 8 8 8 8 8 7 7 7 7 7 7 7 6 6 6 6 5 5 5 5 4 4 4 4 3 3 3
9 9 9 9 9 9 9 8 8 8 8 8 8 8 8 8 8 8 8 7 7 7 7 7 7 7 7 6 6 6 5 5 5 5 4 4 4 4 4 3 3 3 3
8 8 8 8 8 8 8 8 8 8 8 8 8 8 7 7 7 7 7 7 7 7 7 6 6 6 6 6 6 6 5 5 5 4 4 4 4 4 3 3 3 3 2
8 8 8 8 8 8 7 7 7 7 7 7 7 7 7 7 7 7 6 6 6 6 6 6 6 6 6 5 5 5 5 5 5 4 4 4 4 3 3 3 2 2 2
Wind_Speed
5 5 4 3 3 3 3 4 4 4 4 5 5 4 4 4 4 4 3 3 3 2 2 3 2 2 2 2 2 2 2 3 3 1 1 1 1 1 2 2 2 2 2
5 5 4 3 3 3 3 3 4 4 4 4 4 4 4 4 4 5 4 3 3 2 2 2 1 2 2 1 2 2 2 2 3 2 0 1 1 0 1 1 2 2 1
5 5 4 4 4 3 3 3 3 4 4 4 4 4 4 4 4 4 4 3 3 3 3 3 2 3 2 1 2 2 1 2 2 3 1 1 1 1 1 1 2 1 1
5 5 5 4 4 4 3 3 3 4 4 4 4 4 4 4 4 3 3 3 3 2 2 2 2 3 4 3 2 2 2 3 3 3 1 0 0 1 1 0 1 1 1
5 6 6 4 4 4 3 3 3 4 4 4 4 3 3 3 3 4 3 3 3 2 1 0 1 2 4 3 3 3 4 3 3 2 1 0 0 0 1 1 1 1 2
5 6 5 5 4 4 4 4 4 3 3 3 4 4 3 2 4 6 5 4 3 3 2 1 1 2 2 3 3 4 5 5 4 3 2 2 3 2 2 2 1 0 2
5 5 5 5 5 5 5 5 5 4 4 3 3 4 3 3 5 7 7 4 4 3 3 2 1 1 2 2 3 3 2 3 5 5 4 4 4 4 3 2 2 2 3
5 5 4 5 5 4 4 5 4 4 4 3 3 3 3 2 5 6 6 4 3 3 2 2 2 1 1 2 3 2 2 1 1 2 3 4 3 3 4 3 3 1 2
4 5 5 6 6 6 5 5 4 3 3 3 3 4 4 2 4 6 6 4 3 2 1 2 2 2 1 4 4 2 2 2 2 1 0 1 1 2 4 3 1 1 2
6 5 5 5 6 7 7 5 3 3 3 3 3 3 4 3 3 5 6 3 3 1 1 1 2 2 2 4 4 3 1 1 1 2 3 3 2 1 1 3 3 1 1
5 4 4 4 5 6 6 4 4 4 4 3 3 2 3 3 3 5 6 4 4 3 2 1 1 2 3 4 4 3 3 1 1 1 1 2 2 2 1 1 2 3 2
4 4 4 3 4 5 5 4 4 5 4 3 3 2 1 2 3 4 6 6 5 4 2 2 1 2 2 2 2 1 2 2 2 1 1 1 1 2 2 1 0 1 2
4 4 4 3 3 4 6 5 4 4 4 4 3 3 2 2 2 3 5 6 6 3 2 3 2 2 1 0 0 1 2 2 2 1 1 1 2 1 0 1 2 2 2
4 4 4 4 3 3 4 4 5 5 5 4 4 4 3 2 2 2 2 3 4 3 2 2 2 1 1 0 1 0 1 2 2 2 2 2 1 1 1 1 1 2 2
3 3 4 4 4 3 3 3 4 4 6 6 5 5 5 4 5 5 4 3 3 3 3 2 1 1 1 1 1 1 1 0 1 1 1 1 1 1 2 1 1 1 1
3 3 3 3 3 4 3 2 1 2 3 4 5 5 4 5 4 5 5 5 5 7 5 2 1 1 2 2 2 1 1 1 2 2 2 2 2 2 2 2 1 1 2
4 4 3 4 4 4 4 4 2 1 2 1 2 4 4 4 5 5 5 5 6 7 4 3 3 3 3 3 3 2 2 2 2 2 2 3 3 3 2 2 2 2 3
3 4 4 4 4 4 4 4 4 3 1 1 1 1 3 4 5 5 6 5 3 3 3 3 4 4 3 3 3 3 3 2 2 2 3 3 3 3 3 3 3 3 3
3 2 3 4 4 4 4 3 3 3 3 2 0 1 1 2 3 4 6 4 4 4 4 4 4 4 4 4 4 4 3 3 3 3 3 3 3 3 3 3 3 4 3
3 4 4 4 3 3 3 3 3 3 3 2 2 2 1 2 2 2 3 3 4 4 4 4 4 4 4 4 4 4 3 4 4 4 4 4 4 3 4 4 3 3 3
2 3 4 3 4 4 4 4 4 4 3 3 3 3 4 3 4 4 4 4 4 5 5 4 4 4 4 4 4 4 4 4 4 4 4 4 4 4 3 3 3 3 3
3 3 3 4 4 3 3 4 4 4 4 4 2 2 4 3 3 4 4 5 5 5 4 4 4 4 4 4 4 4 5 5 5 4 4 4 4 4 3 3 3 3 3
3 3 3 3 3 4 4 3 4 4 4 4 3 3 3 4 4 4 5 4 4 4 3 4 4 4 4 5 6 5 6 6 6 5 5 4 4 4 4 4 4 4 4
3 4 4 4 3 4 4 4 5 5 4 4 4 4 4 4 5 5 5 4 4 4 4 4 4 6 6 6 6 7 8 8 8 6 6 5 5 4 4 4 4 5 5
3 4 4 4 4 4 4 4 5 5 5 4 4 4 4 4 5 5 4 4 4 4 5 5 5 5 7 7 7 8 9 11 10 8 6 5 5 5 5 5 4 4 4
3 4 4 4 4 4 5 5 5 5 5 5 5 5 5 5 5 5 4 4 4 5 5 5 6 7 8 8 9 10 11 11 11 10 7 5 5 5 5 4 5 4 4
Wind_Direction
179 183 175 177 177 167 170 182 179 169 164 164 165 162 156 152 141 129 125 122 116 94 91 108 109 107 101 95 98 100 108 120 137 271 329 342 67 84 76 75 71 83 104
176 166 163 163 160 161 168 177 167 163 169 169 163 162 162 159 156 152 155 149 146 140 125 114 111 108 97 96 104 106 121 133 140 152 334 360 15 146 109 89 74 69 109
166 159 158 161 164 171 178 173 158 155 164 164 158 164 162 159 163 167 160 155 162 171 168 160 163 133 127 131 130 127 128 122 127 142 169 350 359 24 45 42 56 46 45
165 162 170 181 181 181 176 166 161 155 151 153 154 160 157 151 153 154 149 146 146 155 167 174 176 164 171 168 155 152 132 116 116 125 130 33 351 356 77 42 341 326 310
167 175 187 190 180 172 165 164 158 151 151 152 140 137 136 140 153 154 151 141 136 120 92 108 184 173 180 170 158 160 144 134 132 136 159 159 258 253 235 225 234 299 305
168 182 185 180 175 174 171 159 148 148 144 138 143 143 143 151 159 158 149 145 142 134 121 58 30 88 103 122 131 153 159 158 168 170 187 203 231 226 208 198 192 188 291
175 179 177 176 176 179 170 157 160 163 150 143 157 152 155 168 157 151 147 141 137 136 134 123 88 71 86 87 82 72 95 174 180 175 188 213 214 215 190 196 209 212 235
175 181 178 174 177 169 160 165 171 161 158 163 165 161 156 167 155 150 146 131 126 135 143 145 131 103 114 113 103 72 36 3 253 173 195 218 222 204 189 191 195 214 282
174 184 187 180 176 171 177 180 174 161 165 168 163 163 164 182 160 150 136 126 124 134 139 120 136 138 125 121 111 100 41 349 13 46 163 222 225 187 150 114 100 93 294
196 195 188 177 176 180 183 178 166 159 169 166 163 171 171 180 171 159 142 133 138 142 98 114 148 146 143 141 138 140 158 282 2 26 29 22 34 37 161 165 174 189 243
197 181 174 169 171 174 172 164 154 152 147 154 159 162 172 182 176 165 155 150 161 165 165 189 217 170 150 161 160 171 205 198 157 104 29 5 15 26 33 154 181 186 209
172 169 175 173 170 162 159 161 157 155 154 163 162 178 220 211 187 177 170 165 156 158 186 203 209 179 171 162 168 195 164 109 93 77 47 355 341 330 334 20 341 208 218
156 169 175 166 161 159 162 164 159 161 168 180 183 196 223 231 223 198 183 178 173 166 178 182 183 175 157 122 205 155 132 127 124 122 245 274 281 279 9 40 28 42 28
156 170 170 161 158 150 163 166 168 177 182 188 193 202 213 219 227 215 199 188 180 172 162 142 127 111 83 5 24 58 148 177 176 201 230 255 273 286 287 305 321 331 332
160 166 166 165 161 157 154 171 179 191 189 190 201 196 195 217 225 205 187 186 182 177 140 111 96 76 19 330 325 302 261 201 218 219 220 246 259 262 276 290 278 296 274
163 173 174 163 156 156 153 126 87 159 185 191 192 191 205 209 196 187 187 184 172 151 133 149 184 207 228 239 250 271 271 250 241 233 232 235 242 247 263 282 272 260 267
178 184 177 170 166 165 165 162 159 20 43 94 178 182 193 192 181 177 174 167 160 148 151 190 209 220 231 233 234 238 252 248 234 229 241 247 247 248 255 263 265 273 275
181 181 178 177 174 175 181 181 175 172 181 295 312 225 205 194 184 179 165 142 152 171 195 210 224 229 232 234 236 240 246 248 240 239 241 242 240 248 258 255 251 256 268
184 191 185 175 173 176 179 176 170 170 173 178 194 325 239 195 174 170 157 168 194 211 221 227 229 230 234 234 237 236 235 237 240 238 241 241 240 244 255 259 258 256 261
195 188 180 171 164 166 171 175 176 178 182 191 207 213 165 129 151 181 192 204 212 224 227 232 235 235 236 236 237 238 241 243 240 241 246 245 241 239 245 249 249 255 262
205 194 176 170 174 176 178 184 184 182 191 204 222 216 182 183 200 207 210 217 223 228 232 234 234 235 235 235 237 240 243 246 242 243 246 245 241 244 246 243 243 245 253
196 194 190 186 183 179 185 191 188 191 198 205 224 221 200 202 210 217 221 229 234 234 230 225 230 232 228 226 234 240 246 251 249 246 246 245 241 239 240 241 242 249 250
196 196 201 198 187 185 196 203 198 199 204 209 212 216 212 218 224 225 229 234 234 235 231 224 231 243 238 235 231 231 237 242 242 235 236 240 239 236 234 236 237 243 250
208 204 203 204 196 194 206 214 210 208 210 215 219 221 223 224 228 231 232 233 234 234 234 232 235 244 246 245 245 243 242 243 241 233 227 226 232 233 231 236 238 238 244
215 210 208 210 207 208 217 224 218 214 217 221 225 228 228 228 231 236 236 233 233 238 241 239 242 243 247 251 251 251 249 244 240 237 227 221 223 227 229 231 237 243 245
213 208 211 213 211 214 222 228 226 221 221 225 229 232 230 231 232 233 234 236 240 244 247 244 244 243 251 256 256 253 250 244 240 236 225 218 220 226 228 230 231 232 235
Height
1539 1540 1541 1542 1543 1544 1545 1546 1546 1547 1547 1548 1549 1549 1549 1550 1550 1551 1551 1552 1552 1552 1552 1553 1553 1553 1553 1553 1553 1552 1552 1552 1552 1552 1552 1552 1552 1551 1551 1550 1550 1549 1548
1538 1539 1540 1541 1542 1543 1544 1544 1545 1546 1547 1547 1548 1548 1548 1549 1549 1550 1550 1551 1552 1552 1552 1552 1552 1552 1552 1552 1552 1552 1552 1552 1552 1551 1552 1551 1551 1551 1550 1550 1549 1548 1547
1537 1538 1539 1539 1540 1541 1542 1543 1544 1545 1546 1546 1547 1547 1547 1548 1549 1549 1550 1550 1551 1551 1552 1552 1552 1552 1552 1552 1551 1551 1551 1551 1551 1551 1550 1550 1550 1550 1549 1549 1548 1547 1546
1535 1536 1537 1538 1539 1540 1541 1542 1543 1544 1544 1545 1546 1546 1547 1547 1548 1549 1549 1550 1550 1551 1551 1551 1551 1551 1551 1551 1550 1550 1550 1550 1550 1549 1549 1549 1549 1549 1548 1548 1547 1546 1545
1533 1534 1535 1536 1537 1538 1539 1540 1541 1542 1543 1544 1545 1545 1546 1546 1547 1548 1548 1549 1549 1550 1550 1550 1550 1550 1550 1550 1549 1549 1549 1549 1548 1548 1548 1548 1548 1547 1547 1546 1545 1544 1543
1531 1531 1533 1534 1535 1536 1537 1538 1540 1541 1541 1542 1543 1544 1545 1545 1546 1547 1547 1548 1548 1548 1548 1549 1549 1549 1549 1549 1548 1548 1548 1548 1547 1547 1546 1546 1546 1545 1545 1544 1543 1542 1541
1528 1529 1531 1532 1533 1534 1536 1537 1538 1539 1540 1540 1541 1542 1543 1544 1545 1545 1546 1546 1546 1547 1547 1547 1547 1547 1547 1547 1547 1547 1547 1546 1546 1546 1545 1544 1544 1543 1543 1542 1541 1540 1539
1526 1527 1529 1530 1531 1532 1533 1534 1535 1537 1537 1539 1540 1541 1541 1542 1543 1544 1544 1545 1545 1545 1545 1545 1545 1546 1546 1546 1545 1545 1545 1544 1544 1543 1543 1542 1542 1541 1540 1540 1539 1537 1536
1523 1525 1526 1527 1528 1529 1531 1532 1533 1534 1535 1537 1538 1539 1539 1540 1541 1542 1542 1543 1543 1543 1543 1543 1544 1544 1544 1544 1543 1543 1542 1542 1542 1541 1540 1540 1539 1538 1537 1536 1535 1534 1532
1520 1522 1523 1525 1526 1527 1528 1530 1531 1532 1533 1534 1535 1536 1537 1538 1539 1540 1540 1540 1541 1541 1541 1541 1541 1541 1541 1541 1541 1540 1539 1539 1539 1538 1538 1537 1536 1535 1534 1533 1532 1531 1529
1518 1520 1521 1522 1523 1524 1526 1527 1529 1530 1531 1532 1533 1534 1535 1536 1537 1537 1538 1538 1538 1538 1539 1539 1539 1539 1539 1539 1538 1538 1537 1537 1536 1535 1534 1533 1532 1532 1531 1530 1529 1528 1526
1515 1517 1518 1519 1521 1522 1523 1525 1526 1527 1528 1529 1530 1531 1532 1533 1534 1534 1535 1535 1536 1536 1536 1536 1536 1536 1536 1536 1535 1535 1534 1534 1533 1532 1531 1530 1529 1528 1527 1526 1525 1524 1523
1513 1514 1515 1517 1518 1519 1520 1522 1523 1524 1525 1526 1527 1528 1529 1530 1530 1531 1532 1532 1533 1533 1533 1534 1534 1533 1533 1533 1532 1532 1531 1530 1529 1528 1527 1526 1526 1525 1524 1523 1521 1520 1519
1510 1511 1513 1514 1515 1516 1517 1519 1520 1521 1522 1523 1524 1525 1526 1526 1527 1528 1528 1529 1529 1530 1530 1530 1531 1530 1530 1530 1529 1528 1527 1527 1526 1525 1524 1523 1522 1521 1520 1519 1517 1516 1514
1507 1508 1510 1511 1512 1513 1514 1516 1517 1518 1519 1520 1521 1522 1522 1523 1524 1524 1525 1525 1526 1526 1526 1526 1526 1526 1526 1526 1525 1525 1524 1523 1522 1522 1521 1519 1518 1517 1516 1514 1513 1512 1510
1505 1506 1507 1508 1509 1510 1511 1513 1514 1515 1516 1517 1518 1519 1519 1520 1520 1521 1521 1522 1522 1523 1523 1522 1522 1522 1522 1522 1522 1521 1520 1520 1519 1518 1517 1516 1514 1513 1512 1511 1509 1508 1506
1502 1503 1504 1505 1506 1507 1508 1509 1510 1512 1513 1514 1514 1515 1516 1516 1517 1517 1518 1518 1519 1519 1518 1518 1518 1518 1518 1518 1518 1517 1516 1516 1515 1514 1513 1512 1510 1509 1508 1506 1505 1504 1502
1499 1500 1501 1502 1503 1504 1505 1506 1507 1508 1508 1509 1511 1511 1512 1512 1513 1514 1514 1515 1514 1514 1514 1514 1514 1514 1514 1514 1513 1513 1512 1511 1510 1509 1508 1507 1506 1505 1504 1502 1501 1500 1498
1496 1496 1497 1498 1499 1500 1502 1502 1503 1504 1505 1505 1506 1507 1508 1509 1509 1509 1510 1510 1509 1509 1509 1510 1510 1510 1510 1509 1509 1508 1507 1507 1506 1505 1504 1503 1502 1501 1499 1498 1497 1495 1494
1492 1492 1493 1494 1495 1497 1498 1498 1499 1500 1501 1501 1502 1503 1504 1504 1504 1504 1505 1505 1505 1505 1505 1505 1505 1505 1505 1505 1504 1503 1503 1502 1501 1500 1499 1498 1497 1496 1495 1494 1492 1491 1489
1487 1488 1489 1490 1491 1492 1493 1494 1495 1496 1496 1497 1498 1499 1499 1499 1499 1500 1500 1500 1500 1500 1500 1500 1500 1500 1500 1500 1499 1498 1497 1496 1495 1494 1493 1493 1492 1491 1490 1489 1488 1486 1484
1483 1484 1484 1485 1486 1487 1488 1490 1491 1491 1492 1493 1493 1494 1495 1495 1495 1494 1495 1495 1495 1495 1495 1495 1495 1494 1494 1494 1493 1492 1491 1490 1490 1489 1488 1487 1486 1485 1484 1483 1482 1481 1479
1478 1479 1480 1480 1481 1482 1484 1485 1486 1486 1487 1488 1488 1489 1489 1489 1489 1489 1489 1489 1490 1490 1490 1489 1489 1489 1489 1488 1488 1487 1486 1485 1484 1483 1482 1481 1480 1479 1478 1477 1476 1475 1473
1473 1473 1474 1475 1476 1478 1479 1479 1480 1481 1482 1483 1483 1483 1484 1484 1484 1484 1484 1484 1484 1484 1484 1484 1483 1483 1482 1482 1481 1481 1480 1479 1478 1477 1476 1475 1474 1473 1472 1471 1470 1469 1468
1467 1468 1469 1470 1471 1472 1473 1474 1474 1475 1476 1477 1477 1477 1478 1478 1478 1478 1478 1478 1478 1478 1478 1477 1477 1476 1476 1475 1475 1474 1473 1473 1472 1471 1470 1469 1468 1467 1466 1466 1464 1463 1462
1462 1463 1463 1464 1465 1466 1467 1468 1469 1469 1470 1471 1471 1472 1472 1472 1472 1472 1472 1472 1472 1471 1471 1471 1470 1470 1469 1469 1468 1467 1467 1466 1466 1465 1464 1463 1462 1461 1460 1459 1459 1458 1456